#timestamp,LO_Frequency,Hit,StdDev 
1583730015.2,286046988.2,N
1583730035.9,286046989.4,N
1583730055.7,286046987.7,N
1583730075.6,286046987.3,N
1583730095.4,286046983.5,Y
1583730115.2,286046987.6,P
1583730135.1,286046995.9,N
1583730136.0,286046995.9,N
1583730155.8,286046998.9,N
1583730175.7,286046996.8,N
1583730195.5,286046999.9,N
1583730215.3,286046999.1,N
1583730235.2,286046997.5,N
1583730255.0,286046997.4,N
1583730255.9,286046997.4,N
1583730275.8,286046992.1,N
1583730295.6,286046992.8,N
1583730315.4,286046992.1,N
1583730335.3,286046995.9,N
1583730355.1,286047000.7,N
1583730375.8,286047001.6,N
1583730395.7,286046995.5,N
1583730415.5,286046997.2,N
1583730435.3,286046995.6,N
1583730455.2,286046992.2,N
1583730475.0,286046988.4,Y
1583730475.9,286046988.4,P
1583730495.8,286046994.1,N
1583730515.6,286046995.9,N
1583730535.4,286046995.5,N
1583730555.3,286046992.3,N
1583730575.1,286046995.2,N
1583730595.9,286046995.9,N
1583730615.7,286046993.2,N
1583730635.5,286046991.8,Y
1583730655.4,286047002.8,P
1583730675.2,286046999.1,N
1583730695.0,286046997.2,N
1583730695.9,286046997.2,N
1583730715.8,286047004.3,N
1583730735.6,286047000.7,N
1583730755.5,286046999.7,N
1583730775.3,286046997.9,N
1583730795.1,286046992.8,N
1583730815.9,286046989.3,Y
1583730835.7,286046989.8,P
1583730855.5,286046993.5,N
1583730875.4,286047002.4,N
1583730895.2,286047001.4,N
1583730915.1,286047003.1,N
1583730916.0,286047003.1,N
1583730935.8,286047000.2,N
1583730955.6,286047001.7,N
1583730975.5,286047002.4,N
1583730995.3,286047006.1,N
1583731015.1,286047000.6,N
1583731035.9,286046998.8,N
1583731055.7,286047002.1,N
1583731075.6,286046999.0,N
1583731095.4,286046993.6,N
1583731115.2,286046991.4,N
1583731135.1,286046988.6,N
1583731136.0,286046988.6,N
1583731155.8,286046988.1,N
1583731175.6,286046994.1,N
1583731195.5,286046991.2,N
1583731215.3,286046986.9,N
1583731235.2,286046988.3,N
1583731255.9,286046986.4,N
1583731275.7,286046984.8,N
1583731295.6,286046986.0,N
1583731315.4,286046983.2,N
1583731335.2,286046982.8,N
1583731355.1,286046986.1,N
1583731356.0,286046986.1,N
1583731375.8,286046983.9,N
1583731395.7,286046984.7,N
1583731415.5,286046986.1,N
1583731435.3,286046987.1,N
1583731455.2,286046986.8,N
1583731475.0,286046986.6,N
1583731475.9,286046986.6,N
1583731495.8,286046985.9,N
1583731515.6,286046984.2,N
1583731535.4,286046983.8,N
1583731555.3,286046982.1,Y
1583731575.1,286046994.2,P
1583731595.9,286046992.4,N
1583731615.7,286046993.0,P
1583731635.5,286046996.6,N
1583731655.4,286046996.2,N
1583731675.2,286046995.2,N
1583731695.1,286046997.5,N
1583731696.0,286046997.5,N
1583731715.8,286046997.0,N
1583731735.6,286046997.7,N
1583731755.5,286046997.5,N
1583731775.3,286046995.7,N
1583731795.2,286047000.8,N
1583731815.9,286046999.3,N
1583731835.7,286047002.8,N
1583731855.6,286046996.8,N
1583731875.4,286047003.9,N
1583731895.3,286047004.9,N
1583731915.1,286047007.6,N
1583731916.0,286047007.6,N
1583731935.8,286047006.0,N
1583731955.7,286047009.3,N
1583731975.5,286047015.7,N
1583731995.3,286047012.5,N
1583732015.2,286047012.2,N
1583732035.0,286047010.3,N
1583732035.9,286047010.3,N
1583732055.8,286047013.6,N
1583732075.6,286047012.0,N
1583732095.4,286047012.0,N
1583732115.3,286047014.2,N
1583732135.1,286047016.9,N
1583732155.8,286047014.3,N
1583732175.7,286047014.4,N
1583732195.5,286047015.3,N
1583732215.4,286047014.0,N
1583732235.2,286047014.2,N
1583732255.0,286047017.9,N
1583732255.9,286047017.9,N
1583732275.8,286047023.3,Y
1583732295.6,286047018.8,P
1583732315.5,286047016.4,P
1583732335.3,286047015.5,P
1583732355.1,286047011.4,Y
1583732375.9,286046998.3,P
1583732395.7,286046994.0,N
1583732415.5,286046997.2,N
1583732435.4,286046996.3,N
1583732455.2,286046997.6,N
1583732475.1,286046990.7,N
1583732476.0,286046990.7,N
1583732495.8,286046988.4,N
1583732515.6,286046979.0,N
1583732535.5,286046979.4,N
1583732555.3,286046985.9,N
1583732575.1,286046985.5,N
1583732595.9,286046986.8,N
1583732615.7,286046980.6,N
1583732635.6,286046986.7,N
1583732655.4,286046989.4,N
1583732675.2,286046991.6,N
1583732695.1,286046990.5,N
1583732696.0,286046990.5,N
1583732715.8,286046987.1,N
1583732735.6,286046985.9,N
1583732785.5,286046991.5,E
1583732795.4,286046992.0,N
1583732815.3,286046996.6,P
1583732835.1,286046996.8,N
1583732855.8,286046999.0,N
1583732875.7,286047000.5,N
1583732895.5,286046999.0,N
1583732915.4,286046999.9,N
1583732935.2,286047004.2,N
1583732955.0,286047002.0,N
1583732955.9,286047002.0,N
1583732975.8,286046998.6,N
1583732995.6,286047001.0,N
1583733015.4,286047002.3,N
1583733035.3,286047005.6,N
1583733055.1,286047002.8,N
1583733075.9,286047005.6,N
1583733095.7,286047005.6,N
1583733115.5,286046998.2,N
1583733135.4,286046999.2,N
1583733155.2,286046998.2,N
1583733175.0,286047008.4,N
1583733175.9,286047008.4,N
1583733195.8,286047008.0,N
1583733215.6,286047003.5,N
1583733235.5,286046999.7,N
1583733255.3,286047000.4,N
1583733275.1,286046997.5,N
1583733295.9,286046995.2,N
1583733315.7,286046997.5,N
1583733335.5,286046995.3,N
1583733355.4,286046995.5,N
1583733375.2,286046999.4,N
1583733395.1,286047000.8,N
1583733396.0,286047000.8,N
1583733415.8,286046993.8,N
1583733435.7,286046993.9,N
1583733455.5,286046993.3,N
1583733475.3,286046991.9,N
1583733495.2,286046994.6,N
1583733515.0,286046994.3,N
1583733515.9,286046994.3,N
1583733535.7,286046991.7,N
1583733555.6,286046990.3,N
1583733575.4,286046993.7,N
1583733595.3,286046992.5,N
